Regional Weather Roundup
Issued by NWS Little Rock, AR

Home | Current Version | Previous Version | Graphics & Text | Print | Product List | Glossary On
Versions: 1 2 3 4 5 6 7 8 9 10 11 12 13 14 15 16 17 18 19 20 21 22 23 24 25 26 27 28 29 30 31 32 33 34 35 36 37 38 39 40 41 42 43 44 45 46 47 48 49 50
000
ASUS44 KLZK 200505
RWRLZK

WEATHER ROUNDUP FOR ARKANSAS
NATIONAL WEATHER SERVICE LITTLE ROCK AR
1100 PM CST FRI DEC 19 2014

NOTE: "FAIR" INDICATES FEW OR NO CLOUDS BELOW 12,000 FEET WITH NO
SIGNIFICANT WEATHER AND/OR OBSTRUCTIONS TO VISIBILITY.

ARZ001-003-010-029-200600-
NORTHWEST ARKANSAS

CITY           SKY/WX    TMP DP  RH WIND       PRES   REMARKS
FAYETTEVILLE   CLOUDY    40  40 100 SW6       30.21R FOG
FORT SMITH     CLOUDY    43  39  86 CALM      30.23R
HARRISON       FOG       37  37 100 SE5       30.20S VSB 1/2
BENTONVILLE    CLOUDY    41  37  87 CALM      30.20F
ROGERS         LGT RAIN  40  39  97 CALM      30.20S FOG
SILOAM SPGS    CLOUDY    39  36  87 CALM      30.22S
HIGHFILL       CLOUDY    41  41 100 CALM      30.19S FOG
$$

ARZ004-005-016-200600-
NORTH CENTRAL ARKANSAS

CITY           SKY/WX    TMP DP  RH WIND       PRES   REMARKS
BATESVILLE     CLOUDY    37  32  81 NE5       30.25F
FLIPPIN        CLOUDY    37  32  81 E5        30.23S
MTN HOME       CLOUDY    36  35  96 SE5       30.23R FOG
$$

ARZ040-041-200600-
WEST CENTRAL ARKANSAS

CITY           SKY/WX    TMP DP  RH WIND       PRES   REMARKS
MENA           CLOUDY    43  43 100 CALM      30.21S
MOUNT IDA      CLOUDY    42  40  92 CALM      30.19S FOG
$$

ARZ009-017-025-026-028-200600-
NORTHEAST ARKANSAS

CITY           SKY/WX    TMP DP  RH WIND       PRES   REMARKS
CORNING        CLOUDY    37  34  87 N5        30.28S FOG
JONESBORO      CLOUDY    39  34  82 NE5       30.26S
NEWPORT        CLOUDY    39  36  89 NE6       30.27F
WALNUT RIDGE   CLOUDY    37  32  81 NE3       30.26S
BLYTHEVILLE    CLOUDY    39  34  82 NE5       30.26F
$$

ARZ022-023-033-042-044-200600-
CENTRAL ARKANSAS

CITY           SKY/WX    TMP DP  RH WIND       PRES   REMARKS
LITTLE ROCK    CLOUDY    41  35  79 NE6       30.25S
N LITTLE ROCK  CLOUDY    39  38  96 NE6       30.25S
JACKSONVILLE   CLOUDY    40  36  87 NE5       30.24S
SEARCY         CLOUDY    40  36  86 NE7       30.26F
HOT SPRINGS    CLOUDY    41  38  89 E5        30.23R
RUSSELLVILLE   CLOUDY    41  37  86 SE3       30.23S
CLINTON        CLOUDY    39  36  87 CALM      30.26S FOG
$$

ARZ036-200600-
EAST ARKANSAS

CITY           SKY/WX    TMP DP  RH WIND       PRES   REMARKS
WEST MEMPHIS   CLOUDY    39  35  86 NE3       30.23F
$$

ARZ050-053-066-070-073-200600-
SOUTHWEST ARKANSAS

CITY           SKY/WX    TMP DP  RH WIND       PRES   REMARKS
ARKADELPHIA    FAIR      43  42  96 NE3       30.25R
CAMDEN         CLOUDY    45  39  81 MISG      30.23S
TEXARKANA      CLOUDY    44  42  93 E5        30.21F
EL DORADO      CLOUDY    44  41  89 NE8       30.22R
DE QUEEN       CLOUDY    44  42  93 CALM      30.21S
$$

ARZ056-057-069-200600-
SOUTHEAST ARKANSAS

CITY           SKY/WX    TMP DP  RH WIND       PRES   REMARKS
PINE BLUFF     CLOUDY    41  37  86 NE3       30.24S
STUTTGART      CLOUDY    41  36  81 NE7       30.25R
MONTICELLO     CLOUDY    44  39  82 NE5       30.22F

$$





USA.gov is the U.S. government's official web portal to all federal, state and local government web resources and services.